Flag for Puerto Rico Weather past 2 weeks in Ponce, Puerto Rico

Now
75 °F

Clear.


Feels Like: 75 °F
Forecast: 77 / 90 °F
Wind: 3 mph from Southeast

Location: Aquadilla / Borinquen

Current Time: Sep 3, 2014 at 3:51:01 AM

Latest Report: Sep 3, 2014 at 2:50 AM


Visibility: 10 mi

Pressure: 29.98 "Hg

Humidity: 89%

Dew point: 72 °F

Location of PonceLocation

Historic Weather in Ponce — Graph

°F

Ponce temperature yesterday

Maximum temperature yesterday: 88 °F (at 11:50 AM)
Minimum temperature yesterday: 72 °F (at 6:50 AM)
Average temperature yesterday: 81 °F

Past Weeks' High & Low Weather Summary

 TemperatureHumidityPressure
High90 °F (Aug 24, 1:50 PM)100% (Aug 22, 7:50 AM)30.09 "Hg (Aug 22, 7:50 AM)
Low72 °F (Sep 2, 6:50 AM)58% (Aug 25, 6:50 PM)29.81 "Hg (Aug 22, 5:50 PM)
Average81 °F80%29.97 "Hg
* Reported Aug 19 6:50 AM — Sep 3 2:50 AM, Ponce, Weather by CustomWeather, © 2014

Note: Actual official high and low records may vary slightly from our data, if they occured in-between our weather recording intervals... More about our weather records

Advertising

Ponce weather history for previous 24 hours

 ConditionsComfort  
Time TempWeatherWind HumidityBarometerVisibility
2:50 AM
Sep 3
75 °FClear.3 mph89%29.98 "Hg10 mi
1:50 AM75 °FClear.3 mph89%29.98 "Hg10 mi
12:50 AM75 °FClear.5 mph89%29.99 "Hg10 mi
11:50 PM
Sep 2
77 °FClear.3 mph89%30.02 "Hg10 mi
10:50 PM77 °FClear.6 mph89%30.03 "Hg10 mi
9:50 PM79 °FPassing clouds.3 mph84%30.03 "Hg10 mi
8:50 PM79 °FClear.No wind89%30.00 "Hg10 mi
7:50 PM79 °FPassing clouds.3 mph89%29.98 "Hg10 mi
6:50 PM81 °FScattered clouds.5 mph79%29.97 "Hg10 mi
5:50 PM82 °FScattered clouds.12 mph79%29.96 "Hg10 mi
4:50 PM84 °FScattered clouds.12 mph84%29.96 "Hg10 mi
3:50 PM82 °FBroken clouds.14 mph89%29.96 "Hg10 mi
2:50 PM82 °FScattered clouds.7 mph89%29.97 "Hg10 mi
1:50 PM81 °FThunderstorms. Partly sunny.No wind89%29.99 "Hg10 mi
12:50 PM81 °FRain. Cloudy.10 mph89%30.00 "Hg5 mi
11:50 AM88 °FScattered clouds.12 mph70%30.00 "Hg10 mi
10:50 AM84 °FScattered clouds.10 mph74%30.03 "Hg10 mi
9:50 AM84 °FScattered clouds.6 mph74%30.02 "Hg10 mi
8:50 AM82 °FSunny.5 mph79%30.01 "Hg10 mi
7:50 AM79 °FScattered clouds.5 mph84%30.01 "Hg10 mi
6:50 AM72 °FPassing clouds.3 mph94%29.99 "Hg10 mi
Weather by CustomWeather, © 2014

See weather overviewHow to use our weather pages